Eglin AFB, FL

8:54 AM CST on February 19, 2017 (GMT -0600)
Eglin Air Force Base

Weather History for KVPS - November, 2013

Change the Weather History Date:

Tuesday, November 12, 2013

  Actual Average Record
Temperature  
Mean Temperature 59 °F -  
Max Temperature 74 °F 70 °F 85 °F (1986)
Min Temperature 42 °F 43 °F 31 °F (1953)
Degree Days  
Heating Degree Days 6    
Growing Degree Days 9 (Base 50)    
Moisture  
Dew Point 42 °F    
Average Humidity 56    
Maximum Humidity 82    
Minimum Humidity 35    
Precipitation  
Precipitation 0.00 in - - ()
Sea Level Pressure  
Sea Level Pressure 30.23 in    
Wind  
Wind Speed 11 mph (North)    
Max Wind Speed 24 mph    
Max Gust Speed 38 mph    
Visibility 10 miles    
Events      
Averages and records for this station are not official NWS values.
T = Trace of Precipitation, MM = Missing Value Source: NWS Daily Summary

Daily Weather History Graph

Daily Weather History Graph

Search for Another Location

Airport or City:

Trip Planner

Search our weather history database for the weather conditions in past years. The results will help you decide how hot, cold, wet, or windy it might be!

Date:

Astronomy

Nov. 12, 2013 Rise Set
Actual Time 6:09 AM CST 4:50 PM CST
Civil Twilight 5:44 AM CST 5:15 PM CST
Nautical Twilight 5:15 AM CST 5:44 PM CST
Astronomical Twilight 4:46 AM CST 6:13 PM CST
Moon 1:46 PM CST (11/12) 1:19 AM CST (11/12)
Length of Visible Light 11h 31m
Length of Day
10h 40m
Waxing Gibbous, 76% of the Moon is Illuminated
Nov 12
Waxing Gibbous
Nov 17
Full
Nov 25
Last Quarter
Dec 2
New
Dec 9
First Quarter

Hourly Weather History & Observations

Time (CST) Temp. Windchill Dew Point Humidity Pressure Visibility Wind Dir Wind Speed Gust Speed Precip Events Conditions
12:55 AM 52.0 °F - 46.2 °F 81% 30.16 in 10.0 mi North 6.9 mph - N/A   Scattered Clouds
1:55 AM 52.9 °F - 46.6 °F 79% 30.16 in 10.0 mi North 5.8 mph - N/A   Scattered Clouds
2:55 AM 51.8 °F - 46.4 °F 82% 30.16 in 10.0 mi North 6.9 mph - N/A   Scattered Clouds
3:55 AM 52.3 °F - 45.5 °F 78% 30.16 in 10.0 mi North 6.9 mph - N/A   Mostly Cloudy
4:55 AM 52.9 °F - 44.2 °F 72% 30.17 in 10.0 mi North 8.1 mph - N/A   Mostly Cloudy
5:55 AM 52.0 °F - 44.4 °F 75% 30.18 in 10.0 mi North 8.1 mph - N/A   Mostly Cloudy
6:55 AM 53.2 °F - 44.8 °F 73% 30.20 in 10.0 mi North 4.6 mph - N/A   Mostly Cloudy
7:55 AM 57.0 °F - 44.2 °F 62% 30.21 in 10.0 mi North 8.1 mph - N/A   Mostly Cloudy
8:55 AM 62.1 °F - 45.1 °F 54% 30.22 in 10.0 mi NNE 6.9 mph - N/A   Overcast
9:55 AM 65.7 °F - 44.6 °F 47% 30.22 in 10.0 mi North 10.4 mph - N/A   Overcast
10:55 AM 71.1 °F - 42.4 °F 36% 30.20 in 12.0 mi North 13.8 mph - N/A   Mostly Cloudy
11:40 AM 71.6 °F - 42.8 °F 35% 30.16 in 10.0 mi North 16.1 mph 24.2 mph N/A   Mostly Cloudy
11:55 AM 72.7 °F - 45.0 °F 37% 30.18 in 10.0 mi North 12.7 mph 25.3 mph N/A   Mostly Cloudy
12:59 PM 73.8 °F - 46.4 °F 38% 30.16 in 10.0 mi North 12.7 mph - N/A   Mostly Cloudy
1:55 PM 74.3 °F - 48.2 °F 40% 30.16 in 10.0 mi North 15.0 mph 21.9 mph N/A   Mostly Cloudy
2:55 PM 72.3 °F - 46.9 °F 40% 30.17 in 10.0 mi North 16.1 mph 21.9 mph N/A   Mostly Cloudy
3:57 PM 70.9 °F - 47.5 °F 43% 30.18 in 10.0 mi North 13.8 mph - N/A   Overcast
4:55 PM 66.2 °F - 46.4 °F 49% 30.22 in 10.0 mi North 23.0 mph 31.1 mph N/A   Mostly Cloudy
5:55 PM 62.4 °F - 46.8 °F 57% 30.25 in 10.0 mi North 16.1 mph 25.3 mph N/A   Mostly Cloudy
6:55 PM 57.4 °F - 43.5 °F 60% 30.29 in 10.0 mi North 16.1 mph 27.6 mph N/A   Mostly Cloudy
7:55 PM 53.2 °F - 40.1 °F 61% 30.34 in 10.0 mi North 17.3 mph 25.3 mph N/A   Mostly Cloudy
8:55 PM 49.8 °F - 36.0 °F 59% 30.36 in 10.0 mi North 19.6 mph 38.0 mph N/A   Mostly Cloudy
9:55 PM 47.1 °F - 27.5 °F 47% 30.37 in 10.0 mi NNE 20.7 mph 29.9 mph N/A   Mostly Cloudy
10:55 PM 44.8 °F 37.7 °F 24.8 °F 46% 30.39 in 10.0 mi NNE 16.1 mph 27.6 mph N/A   Mostly Cloudy
11:55 PM 42.8 °F 33.3 °F 22.8 °F 45% 30.38 in 10.0 mi NNE 24.2 mph 29.9 mph N/A   Mostly Cloudy